Cambridge, MN

10:02 PM CST on January 23, 2017 (GMT -0600)
Cambridge Municipal

Weather History for KCBG - January, 2013

Change the Weather History Date:

Friday, January 25, 2013

  Actual Average Record
Temperature  
Mean Temperature 8 °F -  
Max Temperature 15 °F 20 °F 52 °F (1981)
Min Temperature 0 °F 0 °F -25 °F (1991)
Degree Days  
Heating Degree Days 58    
Moisture  
Dew Point 6 °F    
Average Humidity 80    
Maximum Humidity 86    
Minimum Humidity 73    
Precipitation  
Precipitation 0.00 in - - ()
Sea Level Pressure  
Sea Level Pressure 30.03 in    
Wind  
Wind Speed 9 mph (WSW)    
Max Wind Speed 17 mph    
Max Gust Speed 24 mph    
Visibility 9 miles    
Events Snow    
Averages and records for this station are not official NWS values.
T = Trace of Precipitation, MM = Missing Value Source: NWS Daily Summary

Daily Weather History Graph

Daily Weather History Graph

Search for Another Location

Airport or City:

Trip Planner

Search our weather history database for the weather conditions in past years. The results will help you decide how hot, cold, wet, or windy it might be!

Date:

Astronomy

Jan. 25, 2013 Rise Set
Actual Time 7:41 AM CST 5:09 PM CST
Civil Twilight 7:09 AM CST 5:42 PM CST
Nautical Twilight 6:33 AM CST 6:18 PM CST
Astronomical Twilight 5:58 AM CST 6:53 PM CST
Moon 4:07 PM CST (1/25) 6:21 AM CST (1/25)
Length of Visible Light 10h 32m
Length of Day
9h 28m
Waxing Gibbous, 98% of the Moon is Illuminated
Jan 25
Waxing Gibbous
Jan 26
Full
Feb 3
Last Quarter
Feb 10
New
Feb 17
First Quarter

Hourly Weather History & Observations

Time (CST) Temp. Windchill Dew Point Humidity Pressure Visibility Wind Dir Wind Speed Gust Speed Precip Events Conditions
12:15 AM 8.6 °F -5.5 °F 3.2 °F 79% 30.12 in 10.0 mi SSE 10.4 mph - N/A   Overcast
12:36 AM 8.6 °F -2.6 °F 3.2 °F 79% 30.11 in 10.0 mi SSE 6.9 mph - N/A   Overcast
12:55 AM 10.4 °F -2.4 °F 3.2 °F 73% 30.08 in 10.0 mi SSE 9.2 mph - N/A   Overcast
1:15 AM 10.4 °F -3.3 °F 3.2 °F 73% 30.08 in 10.0 mi SSE 10.4 mph - N/A   Overcast
1:36 AM 10.4 °F -1.5 °F 5.0 °F 79% 30.06 in 10.0 mi SSE 8.1 mph - N/A   Overcast
1:56 AM 10.4 °F -0.4 °F 5.0 °F 79% 30.05 in 10.0 mi SSE 6.9 mph - N/A   Overcast
2:16 AM 10.4 °F -1.5 °F 5.0 °F 79% 30.04 in 10.0 mi SSE 8.1 mph - N/A   Overcast
2:35 AM 10.4 °F -1.5 °F 6.8 °F 85% 30.02 in 10.0 mi SSE 8.1 mph - N/A   Overcast
2:56 AM 12.2 °F 0.7 °F 6.8 °F 79% 30.01 in 10.0 mi South 8.1 mph - N/A   Overcast
3:15 AM 12.2 °F -0.2 °F 6.8 °F 79% 30.00 in 10.0 mi South 9.2 mph - N/A   Overcast
3:36 AM 12.2 °F -0.2 °F 8.6 °F 85% 29.98 in 10.0 mi South 9.2 mph - N/A   Overcast
3:56 AM 12.2 °F -1.8 °F 8.6 °F 85% 29.96 in 10.0 mi South 11.5 mph - N/A   Overcast
4:15 AM 12.2 °F -0.2 °F 8.6 °F 85% 29.95 in 10.0 mi South 9.2 mph - N/A   Overcast
4:36 AM 12.2 °F 0.7 °F 8.6 °F 85% 29.94 in 10.0 mi South 8.1 mph - N/A   Overcast
4:56 AM 14.0 °F 2.9 °F 8.6 °F 79% 29.93 in 10.0 mi South 8.1 mph - N/A   Overcast
5:15 AM 14.0 °F 2.9 °F 8.6 °F 79% 29.92 in 10.0 mi SSW 8.1 mph - N/A   Overcast
5:36 AM 14.0 °F 2.9 °F 8.6 °F 79% 29.90 in 10.0 mi SSW 8.1 mph - N/A Snow Light Snow
5:56 AM 14.0 °F 2.9 °F 8.6 °F 79% 29.90 in 10.0 mi SSW 8.1 mph - N/A Snow Light Snow
6:15 AM 15.8 °F 6.1 °F 8.6 °F 73% 29.89 in 10.0 mi SSW 6.9 mph - N/A Snow Light Snow
6:36 AM 15.8 °F 4.2 °F 10.4 °F 79% 29.89 in 10.0 mi SSW 9.2 mph - N/A Snow Light Snow
6:56 AM 15.8 °F 6.1 °F 10.4 °F 79% 29.89 in 10.0 mi SW 6.9 mph - N/A Snow Light Snow
7:36 AM 15.8 °F 6.1 °F 10.4 °F 79% 29.88 in 10.0 mi SW 6.9 mph - N/A Snow Light Snow
7:55 AM 15.8 °F 5.1 °F 10.4 °F 79% 29.88 in 10.0 mi WSW 8.1 mph - N/A Snow Light Snow
8:16 AM 15.8 °F 5.1 °F 10.4 °F 79% 29.88 in 10.0 mi WSW 8.1 mph - N/A Snow Light Snow
8:35 AM 15.8 °F 4.2 °F 12.2 °F 86% 29.88 in 3.0 mi WSW 9.2 mph 17.3 mph N/A Snow Light Snow
8:55 AM 15.8 °F 3.4 °F 12.2 °F 86% 29.88 in 7.0 mi WSW 10.4 mph 17.3 mph N/A Snow Light Snow
9:16 AM 15.8 °F 4.2 °F 10.4 °F 79% 29.89 in 4.0 mi West 9.2 mph 18.4 mph N/A Snow Light Snow
9:35 AM 15.8 °F 2.7 °F 8.6 °F 73% 29.91 in 10.0 mi West 11.5 mph 18.4 mph N/A   Overcast
9:56 AM 15.8 °F 0.3 °F 8.6 °F 73% 29.92 in 10.0 mi WNW 16.1 mph 20.7 mph N/A   Overcast
10:15 AM 14.0 °F -0.8 °F 8.6 °F 79% 29.92 in 4.0 mi West 13.8 mph 23.0 mph N/A Snow Light Snow
10:36 AM 12.2 °F -3.7 °F 8.6 °F 85% 29.94 in 4.0 mi West 15.0 mph 20.7 mph N/A Snow Light Snow
10:55 AM 12.2 °F -3.7 °F 8.6 °F 85% 29.95 in 5.0 mi West 15.0 mph 24.2 mph N/A Snow Light Snow
11:16 AM 12.2 °F -3.7 °F 6.8 °F 79% 29.96 in 4.0 mi West 15.0 mph - N/A Snow Light Snow
11:36 AM 12.2 °F -4.3 °F 6.8 °F 79% 29.96 in 10.0 mi WNW 16.1 mph 21.9 mph N/A Snow Light Snow
11:55 AM 12.2 °F -4.3 °F 6.8 °F 79% 29.97 in 10.0 mi WNW 16.1 mph 21.9 mph N/A   Mostly Cloudy
12:16 PM 12.2 °F -4.8 °F 6.8 °F 79% 29.97 in 10.0 mi WNW 17.3 mph 23.0 mph N/A   Clear
12:35 PM 12.2 °F -3.7 °F 6.8 °F 79% 29.98 in 10.0 mi WNW 15.0 mph 21.9 mph N/A   Clear
12:55 PM 12.2 °F -1.0 °F 6.8 °F 79% 29.99 in 10.0 mi WNW 10.4 mph 18.4 mph N/A   Clear
1:16 PM 12.2 °F -3.7 °F 6.8 °F 79% 30.00 in 10.0 mi WNW 15.0 mph 21.9 mph N/A   Clear
1:35 PM 12.2 °F -2.5 °F 6.8 °F 79% 30.00 in 10.0 mi West 12.7 mph - N/A   Scattered Clouds
1:55 PM 12.2 °F -1.0 °F 6.8 °F 79% 30.02 in 10.0 mi West 10.4 mph 17.3 mph N/A   Clear
2:16 PM 12.2 °F -2.5 °F 6.8 °F 79% 30.02 in 10.0 mi West 12.7 mph 18.4 mph N/A   Clear
2:35 PM 12.2 °F -1.8 °F 6.8 °F 79% 30.04 in 10.0 mi WNW 11.5 mph - N/A   Clear
2:56 PM 12.2 °F -3.1 °F 6.8 °F 79% 30.04 in 10.0 mi WNW 13.8 mph 20.7 mph N/A   Clear
3:16 PM 12.2 °F -1.8 °F 6.8 °F 79% 30.05 in 10.0 mi WNW 11.5 mph - N/A   Clear
3:35 PM 12.2 °F -1.0 °F 6.8 °F 79% 30.06 in 10.0 mi West 10.4 mph 17.3 mph N/A   Clear
3:56 PM 12.2 °F 0.7 °F 6.8 °F 79% 30.07 in 10.0 mi West 8.1 mph 17.3 mph N/A   Scattered Clouds
3:57 PM 12.2 °F -1.0 °F 6.8 °F 79% 30.07 in 10.0 mi West 10.4 mph 17.3 mph N/A   Scattered Clouds
5:09 PM 10.4 °F -0.4 °F 5.0 °F 79% 30.12 in 10.0 mi West 6.9 mph - N/A   Clear
5:12 PM 10.4 °F -1.5 °F 3.2 °F 73% 30.12 in 10.0 mi West 8.1 mph - N/A   Clear
6:00 PM 8.6 °F -1.3 °F 3.2 °F 79% 30.12 in 10.0 mi West 5.8 mph - N/A   Clear
6:01 PM 8.6 °F -1.3 °F 3.2 °F 79% 30.12 in 10.0 mi West 5.8 mph - N/A   Clear
9:10 PM 3.2 °F -4.2 °F -0.4 °F 85% 30.21 in 10.0 mi NNW 3.5 mph - N/A   Clear
9:15 PM 3.2 °F -4.2 °F -0.4 °F 85% 30.21 in 10.0 mi NW 3.5 mph - N/A   Clear
9:35 PM 3.2 °F - -0.4 °F 85% 30.21 in 10.0 mi Calm Calm - N/A   Clear
9:56 PM -0.4 °F -8.3 °F -4.0 °F 85% 30.22 in 10.0 mi WSW 3.5 mph - N/A   Clear
10:15 PM 1.4 °F - -2.2 °F 85% 30.23 in 10.0 mi Calm Calm - N/A   Clear
10:36 PM 1.4 °F - -2.2 °F 85% 30.24 in 10.0 mi Calm Calm - N/A   Clear
10:56 PM -0.4 °F - -4.0 °F 85% 30.26 in 10.0 mi Calm Calm - N/A   Clear
11:16 PM 1.4 °F - -2.2 °F 85% 30.26 in 10.0 mi Calm Calm - N/A   Clear
11:34 PM -0.4 °F - -4.0 °F 85% 30.26 in 10.0 mi Calm Calm - N/A   Clear
11:56 PM -0.4 °F -8.3 °F -5.8 °F 78% 30.28 in 10.0 mi West 3.5 mph - N/A   Clear